When you browse on this site, cookies collect data to enhance your experience and personalize the content and advertising you see.
Visit our Privacy Policy to learn more. By continuing to use the site, you agree to this use of cookies and data.
  • In Lithuania
  • List of Countries
  • For 7 days
  • Water Temperature
  • Satellite Maps
  • Weather Map
  • Weather Widgets
  • user-avatar
    Login

    Hourly Weather Qui Nhon

    Today, 18 November, Sunday

    Time Temperature Precipitation Wind Pressure Humidity
    00:00 +25°C° 0.4 mm 4 mps 757 mmHg 95%
    01:00 +25°C° 0.4 mm 4 mps 757 mmHg 95%
    02:00 +25°C° 1.1 mm 4 mps 757 mmHg 95%
    03:00 +25°C° 1.1 mm 4 mps 757 mmHg 95%
    04:00 +25°C° 1.1 mm 4 mps 757 mmHg 96%
    05:00 +25°C° 1.3 mm 5 mps 757 mmHg 96%
    06:00 +26°C° 1.3 mm 5 mps 757 mmHg 96%
    07:00 +26°C° 1.3 mm 5 mps 757 mmHg 96%
    08:00 +26°C° 1 mm 6 mps 757 mmHg 95%
    09:00 +27°C° 1 mm 6 mps 758 mmHg 94%
    10:00 +27°C° 1 mm 7 mps 758 mmHg 93%
    11:00 +27°C° 1.1 mm 7 mps 758 mmHg 92%
    12:00 +27°C° 1.1 mm 7 mps 757 mmHg 92%
    13:00 +27°C° 1.1 mm 6 mps 757 mmHg 91%
    14:00 +27°C° 1.4 mm 6 mps 757 mmHg 93%
    15:00 +27°C° 1.4 mm 5 mps 756 mmHg 94%
    16:00 +27°C° 1.4 mm 5 mps 756 mmHg 95%
    17:00 +26°C° 0.9 mm 4 mps 757 mmHg 95%
    18:00 +26°C° 0.9 mm 4 mps 757 mmHg 96%
    19:00 +26°C° 0.9 mm 4 mps 757 mmHg 96%
    20:00 +26°C° 0.7 mm 4 mps 757 mmHg 96%
    21:00 +26°C° 0.7 mm 4 mps 758 mmHg 96%
    22:00 +26°C° 0.7 mm 4 mps 758 mmHg 96%
    23:00 +26°C° 0.6 mm 3 mps 758 mmHg 96%

    Tomorrow, 19 November, Monday

    Time Temperature Precipitation Wind Pressure Humidity
    00:00 +26°C° 0.6 mm 3 mps 758 mmHg 97%
    01:00 +26°C° 0.6 mm 3 mps 758 mmHg 97%
    02:00 +26°C° 0.8 mm 3 mps 757 mmHg 97%
    03:00 +26°C° 0.8 mm 2 mps 757 mmHg 97%
    04:00 +25°C° 0.8 mm 2 mps 757 mmHg 97%
    05:00 +26°C° 0.5 mm 2 mps 758 mmHg 96%
    06:00 +26°C° 0.5 mm 1 mps 758 mmHg 95%
    07:00 +27°C° 0.5 mm 1 mps 758 mmHg 94%
    08:00 +28°C° 0.4 mm 2 mps 759 mmHg 87%
    09:00 +29°C° 0.4 mm 2 mps 759 mmHg 81%
    10:00 +31°C° 0.4 mm 2 mps 759 mmHg 74%
    11:00 +31°C° 0.2 mm 2 mps 759 mmHg 72%
    12:00 +33°C° 0.2 mm 3 mps 758 mmHg 70%
    13:00 +33°C° 0.2 mm 3 mps 757 mmHg 69%
    14:00 +31°C° 0.2 mm 3 mps 757 mmHg 72%
    15:00 +31°C° 0.2 mm 3 mps 757 mmHg 75%
    16:00 +30°C° 0.2 mm 3 mps 756 mmHg 78%
    17:00 +29°C° 0.2 mm 3 mps 757 mmHg 84%
    18:00 +27°C° 0.2 mm 3 mps 757 mmHg 89%
    19:00 +26°C° 0.2 mm 3 mps 758 mmHg 95%
    20:00 +26°C° 0.3 mm 3 mps 758 mmHg 95%
    21:00 +26°C° 0.3 mm 3 mps 759 mmHg 95%
    22:00 +26°C° 0.3 mm 2 mps 759 mmHg 96%
    23:00 +26°C° 0.3 mm 2 mps 759 mmHg 96%

    Day after tomorrow, 20 November, Tuesday

    Time Temperature Precipitation Wind Pressure Humidity
    00:00 +26°C° 0.3 mm 2 mps 758 mmHg 96%
    01:00 +26°C° 0.3 mm 2 mps 758 mmHg 96%
    02:00 +26°C° 0.1 mm 2 mps 758 mmHg 96%
    03:00 +25°C° 0.1 mm 2 mps 758 mmHg 96%
    04:00 +25°C° 0.1 mm 2 mps 757 mmHg 96%
    05:00 +26°C° 0 mm 2 mps 758 mmHg 95%
    06:00 +26°C° 0 mm 2 mps 758 mmHg 94%
    07:00 +26°C° 0 mm 3 mps 759 mmHg 93%
    08:00 +28°C° 0.1 mm 3 mps 759 mmHg 86%
    09:00 +29°C° 0.1 mm 3 mps 759 mmHg 78%
    10:00 +31°C° 0.1 mm 3 mps 759 mmHg 70%
    11:00 +32°C° 0 mm 4 mps 758 mmHg 66%
    12:00 +33°C° 0 mm 4 mps 758 mmHg 62%
    13:00 +34°C° 0 mm 4 mps 757 mmHg 57%
    14:00 +33°C° 0 mm 4 mps 756 mmHg 60%
    15:00 +33°C° 0 mm 4 mps 756 mmHg 63%
    16:00 +32°C° 0 mm 4 mps 755 mmHg 66%
    17:00 +29°C° 0 mm 3 mps 756 mmHg 74%
    18:00 +27°C° 0 mm 3 mps 757 mmHg 83%
    19:00 +26°C° 0 mm 3 mps 757 mmHg 91%
    20:00 +25°C° 0 mm 3 mps 758 mmHg 92%
    21:00 +25°C° 0 mm 3 mps 758 mmHg 94%
    22:00 +25°C° 0 mm 3 mps 758 mmHg 95%
    23:00 +25°C° 0.1 mm 3 mps 758 mmHg 95%

    21 November, Wednesday

    Time Temperature Precipitation Wind Pressure Humidity
    00:00 +25°C° 0.1 mm 3 mps 758 mmHg 96%
    01:00 +25°C° 0.1 mm 3 mps 757 mmHg 96%
    02:00 +24°C° 0 mm 3 mps 757 mmHg 96%
    03:00 +24°C° 0 mm 3 mps 757 mmHg 96%
    04:00 +24°C° 0 mm 3 mps 756 mmHg 96%
    05:00 +24°C° 0 mm 3 mps 757 mmHg 93%
    06:00 +25°C° 0 mm 3 mps 757 mmHg 90%
    07:00 +25°C° 0 mm 3 mps 758 mmHg 87%
    08:00 +27°C° 0 mm 3 mps 758 mmHg 79%
    09:00 +30°C° 0 mm 4 mps 758 mmHg 70%
    10:00 +33°C° 0 mm 4 mps 758 mmHg 62%
    11:00 +33°C° 0 mm 4 mps 757 mmHg 60%
    12:00 +34°C° 0 mm 5 mps 756 mmHg 59%
    13:00 +34°C° 0 mm 5 mps 755 mmHg 57%
    14:00 +34°C° 0 mm 5 mps 755 mmHg 61%
    15:00 +33°C° 0 mm 5 mps 755 mmHg 64%
    16:00 +32°C° 0 mm 5 mps 755 mmHg 68%
    17:00 +29°C° 0 mm 5 mps 756 mmHg 76%
    18:00 +28°C° 0 mm 5 mps 756 mmHg 84%
    19:00 +26°C° 0 mm 4 mps 757 mmHg 92%
    20:00 +26°C° 0 mm 4 mps 757 mmHg 93%
    21:00 +26°C° 0 mm 5 mps 758 mmHg 94%
    22:00 +25°C° 0 mm 5 mps 758 mmHg 95%
    23:00 +25°C° 0.1 mm 5 mps 757 mmHg 95%

    22 November, Thursday

    Time Temperature Precipitation Wind Pressure Humidity
    00:00 +25°C° 0.1 mm 5 mps 757 mmHg 95%
    01:00 +25°C° 0.1 mm 4 mps 756 mmHg 96%
    02:00 +25°C° 0.1 mm 5 mps 756 mmHg 96%
    03:00 +25°C° 0.1 mm 5 mps 756 mmHg 96%
    04:00 +23°C° 0.1 mm 5 mps 756 mmHg 96%
    05:00 +25°C° 0.2 mm 5 mps 756 mmHg 93%
    06:00 +26°C° 0.2 mm 6 mps 756 mmHg 91%
    07:00 +26°C° 0.2 mm 6 mps 757 mmHg 89%
    08:00 +28°C° 0.3 mm 7 mps 757 mmHg 82%
    09:00 +29°C° 0.3 mm 7 mps 757 mmHg 75%
    10:00 +32°C° 0.3 mm 8 mps 757 mmHg 68%
    11:00 +32°C° 0.3 mm 8 mps 757 mmHg 68%
    12:00 +32°C° 0.3 mm 8 mps 756 mmHg 69%
    13:00 +32°C° 0.3 mm 9 mps 755 mmHg 69%
    14:00 +31°C° 0.5 mm 8 mps 755 mmHg 74%
    15:00 +28°C° 0.5 mm 8 mps 755 mmHg 79%
    16:00 +27°C° 0.5 mm 8 mps 755 mmHg 84%
    17:00 +27°C° 0.5 mm 8 mps 756 mmHg 87%
    18:00 +26°C° 0.5 mm 8 mps 756 mmHg 89%
    19:00 +26°C° 0.5 mm 8 mps 757 mmHg 92%
    20:00 +26°C° 0.5 mm 8 mps 757 mmHg 92%
    21:00 +26°C° 0.5 mm 9 mps 757 mmHg 92%
    22:00 +26°C° 0.5 mm 9 mps 756 mmHg 92%
    23:00 +26°C° 0.7 mm 9 mps 756 mmHg 92%

    23 November, Friday

    Time Temperature Precipitation Wind Pressure Humidity
    00:00 +24°C° 0.7 mm 9 mps 755 mmHg 92%
    01:00 +24°C° 0.7 mm 9 mps 755 mmHg 92%
    02:00 +24°C° 0.9 mm 9 mps 754 mmHg 92%
    03:00 +24°C° 0.9 mm 9 mps 754 mmHg 92%
    04:00 +24°C° 0.9 mm 9 mps 754 mmHg 92%
    05:00 +24°C° 1.7 mm 9 mps 754 mmHg 92%
    06:00 +24°C° 1.7 mm 9 mps 754 mmHg 92%
    07:00 +24°C° 1.7 mm 9 mps 753 mmHg 92%
    08:00 +24°C° 5.2 mm 9 mps 753 mmHg 90%
    09:00 +26°C° 5.2 mm 9 mps 753 mmHg 89%
    10:00 +26°C° 5.2 mm 10 mps 753 mmHg 87%
    11:00 +26°C° 5.3 mm 10 mps 752 mmHg 89%
    12:00 +24°C° 5.3 mm 10 mps 751 mmHg 91%
    13:00 +24°C° 5.3 mm 10 mps 750 mmHg 92%
    14:00 +24°C° 11 mm 10 mps 749 mmHg 92%
    15:00 +24°C° 11 mm 11 mps 749 mmHg 92%
    16:00 +24°C° 11 mm 12 mps 749 mmHg 92%
    17:00 +24°C° 5.6 mm 12 mps 749 mmHg 91%
    18:00 +24°C° 5.6 mm 12 mps 749 mmHg 90%
    19:00 +24°C° 5.6 mm 12 mps 749 mmHg 89%
    20:00 +24°C° 3.8 mm 12 mps 749 mmHg 90%
    21:00 +24°C° 3.8 mm 12 mps 749 mmHg 91%
    22:00 +24°C° 3.8 mm 12 mps 748 mmHg 93%
    23:00 +23°C° 5.2 mm 12 mps 748 mmHg 93%
    Show more